Retour au catalogue

BREEZE-M DEB

ActifHEO
NORAD 37201·DEBRIS·🇷🇺 Russia

Lancé Mar 14, 2008 depuis Baikonur Cosmodrome

Loading…

Prochains Passages (prochaines 24 heures)

TLE

FraisSource: Space-Track

Époque: Sep 14, 2026, 09:49 UTC

1 37201U 08011F   26257.40959108 -.00000625  00000-0 -23853-1 0  9998
2 37201  49.2699  20.1732 6356947 215.0719  72.3037  3.06060140177933

Suivez BREEZE-M DEB en temps réel avec AllMySat

Download on the App Store